CW0060 Weather Reports


time (UTC)temp
F
wind
direction
speed
knots
gust
knots
rain 1hr
in
rain 24hr
in
rain mn
in
humidity
%
barometer
mb
20260507023705 48 233 4.3 7.8 0.00 0.27 0.02 93 1008.7
20260507021706 48 262 4.3 8.7 0.01 0.27 0.02 93 1008.4
20260507020705 49 250 3.5 7.0 0.01 0.27 0.02 93 1008.3
20260507015705 49 191 4.3 7.8 0.01 0.27 0.02 93 1008.1
20260507014705 49 269 3.5 7.0 0.01 0.27 0.02 93 1008.1
20260507014206 49 240 4.3 7.0 0.01 0.27 0.02 93 1008.1
20260507013705 49 277 3.5 7.0 0.01 0.27 0.02 93 1008.1
20260507013204 49 257 3.5 7.0 0.01 0.27 0.02 93 1008.1
20260507011706 49 233 3.5 7.8 0.00 0.26 0.02 93 1008.0
20260507005705 49 286 6.1 9.6 0.02 0.26 0.02 93 1008.0
20260507005206 49 252 6.1 9.6 0.02 0.26 0.02 93 1007.9
20260507004205 49 248 6.1 9.6 0.03 0.26 0.02 93 1008.0
20260507003705 49 208 5.2 8.7 0.04 0.26 0.02 93 1007.9
20260507003205 50 203 5.2 11.3 0.04 0.26 0.02 93 1007.9
20260507002706 50 239 6.1 11.3 0.05 0.26 0.02 93 1007.9
20260507001705 50 250 5.2 8.7 0.05 0.25 0.01 93 1007.8
20260507001231 50 255 4.3 7.0 0.05 0.25 0.01 93 1007.9
20260507000705 51 250 3.5 8.7 0.04 0.24 0.00 93 1007.9
20260507000206 51 264 4.3 8.7 0.04 0.24 0.24 93 1008.0
20260506235705 51 222 5.2 8.7 0.03 0.24 0.24 93 1007.9
20260506235205 51 219 4.3 7.8 0.03 0.23 0.23 93 1007.9
20260506234705 51 226 4.3 7.8 0.03 0.23 0.23 93 1007.9
20260506234204 51 283 5.2 7.8 0.03 0.22 0.22 92 1007.8
20260506233205 51 271 3.5 7.8 0.04 0.22 0.22 92 1007.8
20260506232731 51 214 3.5 7.8 0.04 0.21 0.21 92 1007.7
20260506232206 51 253 3.5 7.8 0.05 0.22 0.21 92 1007.7
20260506230205 51 245 2.6 5.2 0.06 0.21 0.20 92 1007.6
20260506225708 51 252 2.6 5.2 0.07 0.22 0.20 92 1007.6
20260506225205 51 248 2.6 5.2 0.07 0.22 0.20 92 1007.6
20260506224705 52 262 2.6 5.2 0.08 0.23 0.20 92 1007.5
20260506224237 52 258 3.5 5.2 0.07 0.23 0.19 92 1007.5
20260506223705 52 224 3.5 7.0 0.06 0.22 0.18 92 1007.5
20260506223205 52 246 3.5 7.8 0.06 0.22 0.17 92 1007.3
20260506222705 52 269 3.5 7.8 0.05 0.21 0.17 92 1007.4
20260506222205 52 257 3.5 7.8 0.04 0.21 0.16 92 1007.3
20260506221705 52 234 3.5 7.8 0.05 0.22 0.16 92 1007.2
20260506221205 52 271 4.3 7.8 0.04 0.21 0.15 92 1007.2
20260506220705 52 250 4.3 7.8 0.03 0.20 0.14 92 1007.1
20260506220205 53 248 4.3 7.0 0.03 0.20 0.13 92 1007.1
20260506215705 53 229 3.5 5.2 0.02 0.19 0.13 92 1007.1
20260506215206 53 233 3.5 6.1 0.01 0.18 0.12 91 1007.1
20260506214705 53 240 3.5 7.0 0.01 0.18 0.12 91 1007.1
20260506213205 53 252 3.5 7.0 0.01 0.18 0.12 91 1007.1
20260506212705 53 238 3.5 6.1 0.01 0.18 0.12 91 1007.0
20260506211706 53 252 4.3 7.8 0.00 0.17 0.11 91 1006.9
20260506211205 53 219 5.2 8.7 0.01 0.17 0.11 91 1006.9
20260506210705 53 222 6.1 8.7 0.01 0.17 0.11 91 1006.9
20260506210205 53 226 5.2 8.7 0.01 0.17 0.11 91 1006.9
20260506205706 53 233 5.2 7.0 0.02 0.17 0.11 90 1006.9
20260506205205 53 257 3.5 6.1 0.02 0.17 0.11 90 1006.9
20260506204705 53 245 2.6 6.1 0.02 0.17 0.11 90 1006.9
20260506204206 53 252 3.5 6.1 0.03 0.17 0.11 90 1006.8
20260506203705 53 243 2.6 6.1 0.03 0.17 0.11 90 1006.8
20260506203205 53 220 2.6 8.7 0.03 0.17 0.11 89 1006.7
20260506202706 53 212 3.5 8.7 0.04 0.17 0.11 89 1006.8
20260506202206 53 226 4.3 8.7 0.06 0.17 0.11 89 1006.7
20260506201705 53 224 5.2 7.8 0.08 0.17 0.10 89 1006.6
20260506201205 54 253 4.3 7.0 0.09 0.17 0.10 88 1006.7
20260506200706 54 269 4.3 7.8 0.10 0.17 0.10 88 1006.6
20260506200205 54 257 4.3 9.6 0.09 0.16 0.09 88 1006.5
20260506195206 54 238 6.1 13.0 0.09 0.15 0.09 87 1006.5
20260506194705 55 243 6.1 13.0 0.09 0.15 0.09 86 1006.4
20260506194204 55 257 6.1 13.0 0.08 0.14 0.08 86 1006.4
20260506193705 55 255 6.1 9.6 0.08 0.14 0.08 85 1006.4
20260506193204 56 245 4.3 9.6 0.08 0.14 0.08 84 1006.2
20260506192705 56 212 4.3 9.6 0.06 0.13 0.06 83 1006.1
20260506192206 56 245 6.1 9.6 0.04 0.10 0.04 82 1006.1
20260506191705 57 252 5.2 11.3 0.02 0.08 0.02 81 1005.9
20260506191205 57 221 5.2 13.0 0.00 0.06 0.00 80 1005.8
20260506190704 57 314 6.1 13.0 0.00 0.06 0.00 79 1005.8
20260506190205 57 255 7.0 13.0 0.00 0.06 0.00 79 1005.7
20260506185206 57 214 5.2 13.9 0.00 0.06 0.00 78 1005.5
20260506184705 57 240 6.1 13.9 0.00 0.06 0.00 77 1005.5
20260506184206 58 250 7.0 13.9 0.00 0.06 0.00 77 1005.5
20260506183706 58 207 6.1 9.6 0.00 0.06 0.00 77 1005.4
20260506183205 58 231 6.1 10.4 0.00 0.06 0.00 76 1005.4
20260506182705 58 252 5.2 11.3 0.00 0.06 0.00 75 1005.2
20260506182206 59 233 6.1 11.3 0.00 0.06 0.00 74 1005.1
20260506181707 59 226 7.0 11.3 0.00 0.07 0.00 73 1005.1
20260506180723 60 208 7.8 13.0 0.00 0.07 0.00 70 1004.9
20260506180205 60 229 6.1 13.0 0.00 0.07 0.00 68 1004.9
20260506175705 60 229 3.5 7.0 0.00 0.07 0.00 66 1004.7
20260506175206 60 250 3.5 8.7 0.00 0.07 0.00 65 1004.7
20260506174705 60 259 4.3 8.7 0.00 0.08 0.00 65 1004.7
20260506173708 60 239 4.3 9.6 0.00 0.09 0.00 65 1004.7
20260506172206 60 290 5.2 11.3 0.00 0.10 0.00 63 1004.6
20260506171705 61 226 6.1 12.2 0.00 0.12 0.00 63 1004.4
20260506171204 61 217 6.1 12.2 0.00 0.12 0.00 63 1004.3
20260506165705 61 240 7.0 12.2 0.00 0.14 0.00 62 1004.2
20260506165204 62 290 7.0 11.3 0.00 0.16 0.00 61 1004.1
20260506164705 62 222 7.0 11.3 0.00 0.17 0.00 61 1004.1
20260506164206 62 221 7.0 11.3 0.00 0.18 0.00 61 1004.0
20260506163705 62 238 6.1 12.2 0.00 0.20 0.00 61 1004.0
20260506162214 62 203 6.1 11.3 0.00 0.24 0.00 60 1004.1
20260506160232 63 219 5.2 10.4 0.00 0.32 0.00 60 1004.2
20260506155705 63 224 5.2 7.8 0.00 0.34 0.00 60 1004.2
20260506155205 63 217 5.2 7.8 0.00 0.35 0.00 63 1004.2
20260506154206 63 222 6.1 10.4 0.00 0.40 0.00 61 1004.2
20260506153705 63 220 6.1 8.7 0.00 0.50 0.00 61 1004.2
20260506152705 63 222 5.2 8.7 0.00 0.71 0.00 61 1004.3
20260506152207 63 224 5.2 8.7 0.00 0.77 0.00 63 1004.3
20260506151706 63 243 5.2 9.6 0.00 0.89 0.00 59 1004.2
20260506150705 64 212 5.2 9.6 0.00 1.02 0.00 59 1004.1
20260506150205 64 210 5.2 9.6 0.00 1.02 0.00 59 1004.1
20260506145206 65 215 6.1 9.6 0.00 1.02 0.00 57 1004.2
20260506144706 65 236 5.2 9.6 0.00 1.02 0.00 55 1004.2
20260506144208 65 212 5.2 11.3 0.00 1.02 0.00 60 1004.1
20260506143205 65 221 7.0 11.3 0.00 1.02 0.00 56 1004.2
20260506142705 64 214 6.1 11.3 0.00 1.02 0.00 58 1004.3
20260506142209 64 202 5.2 8.7 0.00 1.02 0.00 59 1004.3
20260506141706 64 245 4.3 13.9 0.00 1.02 0.00 59 1004.2
20260506141205 64 238 6.1 13.9 0.00 1.02 0.00 56 1004.2
20260506140705 64 231 5.2 7.8 0.00 1.02 0.00 56 1004.3
20260506140205 64 229 3.5 7.0 0.00 1.02 0.00 60 1004.2
20260506135205 64 161 5.2 12.2 0.00 1.02 0.00 59 1004.1
20260506134205 64 236 4.3 7.0 0.00 1.02 0.00 62 1004.2
20260506133205 64 233 4.3 9.6 0.00 1.02 0.00 61 1004.3
20260506132705 64 229 5.2 9.6 0.00 1.02 0.00 61 1004.4
20260506132206 63 245 4.3 9.6 0.00 1.02 0.00 62 1004.4
20260506131706 63 222 5.2 10.4 0.00 1.02 0.00 62 1004.4
20260506131208 64 240 6.1 10.4 0.00 1.02 0.00 60 1004.3
20260506130205 65 255 3.5 8.7 0.00 1.02 0.00 62 1004.1
20260506125705 65 245 4.3 8.7 0.00 1.02 0.00 61 1004.1
20260506125206 64 151 4.3 8.7 0.00 1.02 0.00 63 1004.2
20260506124708 64 264 3.5 9.6 0.00 1.02 0.00 62 1004.2
20260506124205 64 226 4.3 9.6 0.00 1.02 0.00 66 1004.3
20260506123708 63 219 5.2 10.4 0.00 1.02 0.00 64 1004.3
20260506123209 63 240 6.1 10.4 0.00 1.02 0.00 61 1004.4
20260506122705 63 276 5.2 10.4 0.00 1.02 0.00 63 1004.4
20260506122206 62 148 5.2 10.4 0.00 1.02 0.00 64 1004.5
20260506121706 63 201 6.1 11.3 0.00 1.02 0.00 63 1004.5
20260506121205 62 210 6.1 11.3 0.00 1.02 0.00 66 1004.5
20260506120705 63 250 7.0 11.3 0.00 1.02 0.00 64 1004.5
20260506120205 64 207 6.1 10.4 0.00 1.02 0.00 63 1004.5
20260506115705 64 229 5.2 11.3 0.00 1.02 0.00 64 1004.4
20260506114705 64 252 6.1 9.6 0.00 1.02 0.00 63 1004.5
20260506114206 64 221 4.3 6.1 0.00 1.02 0.00 66 1004.6
20260506113706 62 210 4.3 11.3 0.00 1.02 0.00 69 1004.6
20260506113206 61 245 5.2 11.3 0.00 1.02 0.00 71 1004.6
20260506112213 61 207 6.1 11.3 0.00 1.02 0.00 67 1004.7
20260506111705 62 214 7.0 11.3 0.00 1.02 0.00 68 1004.7
20260506110205 65 163 6.1 11.3 0.00 1.02 0.00 70 1004.6
20260506105205 64 160 5.2 10.4 0.00 1.02 0.00 68 1004.9
20260506104705 63 243 4.3 7.8 0.00 1.02 0.00 73 1004.9
20260506102206 62 229 7.0 11.3 0.00 1.02 0.00 72 1005.0
20260506101705 62 217 7.0 11.3 0.00 1.02 0.00 67 1005.0
20260506101205 63 231 6.1 11.3 0.00 1.02 0.00 70 1004.9
20260506100706 63 229 6.1 12.2 0.00 1.02 0.00 71 1004.9
20260506100227 63 180 6.1 12.2 0.00 1.02 0.00 71 1005.0
20260506095706 62 222 7.0 12.2 0.00 1.02 0.00 71 1004.9
20260506095205 62 210 5.2 10.4 0.00 1.02 0.00 73 1004.9
20260506094705 61 250 4.3 9.6 0.00 1.02 0.00 76 1004.7
20260506094205 60 239 5.2 9.6 0.00 1.02 0.00 76 1005.0
20260506093705 60 214 5.2 12.2 0.00 1.02 0.00 73 1005.0
20260506093205 60 253 5.2 12.2 0.00 1.02 0.00 74 1004.9
20260506092705 60 197 5.2 12.2 0.00 1.02 0.00 77 1005.0
20260506092206 60 245 4.3 7.8 0.00 1.02 0.00 75 1005.1
20260506091706 60 214 2.6 5.2 0.00 1.02 0.00 76 1005.2
20260506090706 58 240 1.7 4.3 0.00 1.02 0.00 82 1005.2
20260506085705 58 46 2.6 6.1 0.00 1.02 0.00 82 1005.4
20260506085206 58 250 2.6 6.1 0.00 1.02 0.00 83 1005.4
20260506084705 57 283 2.6 6.1 0.00 1.02 0.00 82 1005.4
20260506083705 57 269 2.6 9.6 0.00 1.02 0.00 84 1005.2
20260506083206 57 269 3.5 9.6 0.00 1.02 0.00 82 1005.1
20260506082706 57 231 3.5 6.1 0.00 1.02 0.00 84 1005.3
20260506082206 57 264 3.5 7.0 0.00 1.02 0.00 83 1005.1
20260506081706 57 226 3.5 7.8 0.00 1.02 0.00 83 1005.1
20260506081206 57 269 4.3 8.7 0.00 1.02 0.00 84 1005.0
20260506080706 57 207 4.3 8.7 0.00 1.02 0.00 83 1005.0
20260506080205 57 194 5.2 10.4 0.00 1.02 0.00 85 1005.0
20260506072705 55 224 6.1 10.4 0.00 1.02 0.00 88 1005.1
20260506072206 55 265 6.1 11.3 0.00 1.02 0.00 88 1005.1
20260506071705 55 234 6.1 11.3 0.00 1.02 0.00 89 1005.2
20260506071205 54 224 6.1 11.3 0.00 1.02 0.00 90 1005.1
20260506070705 54 240 6.1 9.6 0.00 1.02 0.00 91 1005.1
20260506070205 54 208 6.1 9.6 0.00 1.02 0.00 91 1005.1
20260506062206 53 200 5.2 8.7 0.00 1.02 0.00 93 1005.2
20260506061706 53 201 4.3 8.7 0.00 1.02 0.00 94 1005.2
20260506060705 53 207 6.1 9.6 0.00 1.02 0.00 94 1005.1
20260506060206 53 212 5.2 9.6 0.00 1.02 0.00 94 1005.1
20260506050705 51 194 2.6 4.3 0.00 1.02 0.00 94 1005.2
20260506050206 51 219 1.7 4.3 0.00 1.02 0.00 94 1005.1
20260506044706 51 207 2.6 5.2 0.00 1.02 0.00 94 1005.2
20260506044206 51 185 2.6 7.0 0.00 1.02 0.00 94 1005.1
20260506043705 51 214 2.6 7.0 0.00 1.02 0.00 94 1005.1
20260506042205 51 190 0.9 2.6 0.00 1.02 0.00 94 1005.3
20260506041708 51 160 0.9 4.3 0.00 1.02 0.00 94 1005.2
20260506041205 51 135 0.9 4.3 0.00 1.02 0.00 94 1005.1
20260506040705 51 178 1.7 4.3 0.00 1.02 0.00 94 1005.0
20260506040205 51 156 1.7 3.5 0.00 1.02 0.00 94 1005.1
20260506035705 51 205 1.7 5.2 0.00 1.02 0.00 94 1005.1
20260506035206 51 212 2.6 7.8 0.00 1.02 0.00 94 1005.1
20260506034706 51 248 4.3 7.8 0.00 1.02 0.00 94 1005.2
20260506034205 51 222 4.3 7.8 0.00 1.02 0.00 94 1005.2
20260506033705 51 219 3.5 5.2 0.00 1.02 0.00 94 1005.3
20260506033205 51 207 2.6 4.3 0.00 1.02 0.00 94 1005.4
20260506032705 51 193 1.7 3.5 0.00 1.02 0.00 94 1005.3
20260506032206 51 170 1.7 3.5 0.00 1.02 0.00 94 1005.3
20260506031708 51 188 1.7 3.5 0.00 1.02 0.00 94 1005.1
20260506031205 51 178 1.7 3.5 0.00 1.02 0.00 94 1005.1
20260506030705 51 191 1.7 3.5 0.00 1.02 0.00 94 1005.2
20260506030205 51 222 1.7 4.3 0.00 1.02 0.00 93 1005.4
20260506025206 51 163 2.6 5.2 0.00 1.02 0.00 94 1005.3
20260506024705 52 195 2.6 5.2 0.00 1.02 0.00 94 1005.3
20260506024206 52 212 2.6 4.3 0.00 1.02 0.00 94 1005.3